[[{"header":{"parameterUnit":"m.s-1","parameterCategory":1,"la1":30.2991,"la2":30.254,"lo1":-89.0895,"lo2":-89.0444,"dy":0.0017,"dx":0.0017,"nx":28,"ny":28,"refTime":"2025-08-08T03:00:00:Z","depth":0,"parameterNumber":2,"parameterNumberName":"U-component_of_WINDS"},"data":[0,0,0,0,0,0,0,0,0,0,0,0,0,0,0,0,0,0,0,0,0,0,0,0,0,0,0,0,0,0,0,0,0,0,0,0,0,0,0,0,0,0,0,0,0,0,0,0,0,0,0,0,0,0,0,0,0,0,-3.8057,-3.8058,0,-3.8139,-3.814,-3.8141,-3.8038,-3.8034,-3.8031,-3.8027,-3.811,-3.8116,-3.8121,0,0,0,0,0,0,0,0,0,0,0,0,0,-3.7811,-3.7816,-3.8057,-3.8058,-3.8059,-3.8139,-3.814,-3.8141,-3.8039,-3.8034,-3.803,-3.8025,-3.8108,-3.8115,-3.8122,0,0,0,0,0,0,0,0,0,0,0,0,0,-3.7908,-3.7818,-3.8057,-3.8018,-3.8015,-3.8138,-3.814,-3.8141,-3.804,-3.8034,-3.8028,-3.8023,-3.8106,-3.8114,-3.8123,-3.8288,0,0,-3.8149,-3.8153,0,0,0,0,0,0,0,0,-3.7903,-3.7917,-3.8022,-3.8021,-3.8018,-3.8072,-3.8083,-3.8191,-3.8041,-3.803,-3.8027,-3.802,-3.8102,-3.8111,-3.8138,-3.8292,-3.8296,-3.815,-3.8155,-3.8159,-3.8161,0,0,0,0,0,0,0,-3.7896,-3.7913,-3.8089,-3.8024,-3.8021,-3.7996,-3.8003,-3.8103,-3.8097,-3.8031,-3.8024,-3.8035,-3.81,-3.813,-3.814,-3.8297,-3.815,-3.8157,-3.8163,-3.8166,-3.859,-3.8595,0,0,0,0,0,0,-3.7894,-3.7908,-3.8087,-3.8092,-3.7945,-3.8005,-3.8013,-3.8061,-3.8095,-3.8095,-3.8039,-3.803,-3.8119,-3.813,-3.8142,-3.8337,-3.8159,-3.8167,-3.8172,-3.8584,-3.8591,-3.8598,0,0,0,0,0,0,-3.7889,-3.7911,-3.8083,-3.7998,-3.8018,-3.8015,-3.8069,-3.8065,-3.8095,-3.8102,-3.81,-3.8072,-3.8115,-3.813,-3.8253,-3.8338,-3.8171,-3.8178,-3.8576,-3.8586,-3.8594,-3.8729,0,0,0,0,0,0,-3.7883,-3.791,-3.7973,-3.8,-3.8023,-3.8193,-3.8074,-3.8071,-3.8111,-3.8099,-3.8132,-3.8132,-3.8111,-3.824,-3.8261,-3.8347,-3.8185,-3.8569,-3.8581,-3.8591,-3.8716,-3.8741,-3.8762,0,0,0,0,0,-3.7874,-3.8008,-3.7977,-3.7999,-3.8102,-3.8198,-3.8211,-3.8185,-3.8118,-3.8181,-3.8185,-3.8131,-3.8326,-3.8254,-3.8276,-3.8366,-3.8563,-3.8577,-3.8591,-3.8706,-3.8736,-3.8762,0,0,0,0,0,0,-3.799,-3.8011,-3.7976,-3.8123,-3.816,-3.8181,-3.8259,-3.8218,-3.8274,-3.826,-3.8225,-3.8234,-3.8364,-3.8377,-3.8296,-3.8528,-3.8433,-3.8452,-3.8514,-3.8542,-3.8565,-3.8558,-3.8192,0,0,0,0,0,-3.8033,-3.811,-3.8123,-3.8251,-3.8271,-3.8263,-3.8304,-3.828,-3.8317,-3.8332,-3.8345,-3.8382,-3.8451,-3.8498,-3.8562,-3.8719,-3.8724,-3.8792,-3.8815,-3.8833,-3.885,-3.8932,-3.8962,-3.8643,-3.8643,-3.8642,0,0,-3.8122,-3.8142,-3.8193,-3.8275,-3.8301,-3.838,-3.8276,-3.8365,-3.8424,-3.8345,-3.8461,-3.8472,-3.8512,-3.8652,-3.8714,-3.8667,-3.8939,-3.8851,-3.8866,-3.8872,-3.8949,-3.8979,-3.9006,-3.8652,-3.8651,-3.8649,0,0,-3.8324,-3.8348,-3.8456,-3.8484,-3.8524,-3.8518,-3.8544,-3.8572,-3.8576,-3.8692,-3.8635,-3.8704,-3.8825,-3.8855,-3.8886,-3.91,-3.9052,-3.9123,-3.9242,-3.9323,-3.9348,-3.937,-3.9444,-3.9472,-3.9139,-3.9139,-3.914,0,-3.8428,-3.8547,-3.8517,-3.861,-3.8647,-3.858,-3.8689,-3.8718,-3.8778,-3.8805,-3.8752,-3.8901,-3.8923,-3.9068,-3.9121,-3.9149,-3.9177,-3.9117,-3.9347,-3.9368,-3.9388,-3.9459,-3.9488,-3.9147,-3.9147,-3.9146,-3.9145,0,-3.8673,-3.8756,-3.8838,-3.8897,-3.8944,-3.9045,-3.903,-3.9081,-3.9054,-3.9053,-3.9172,-3.9196,-3.9264,-3.9297,-3.9272,-3.9439,-3.9408,-3.9352,-3.9256,-3.9427,-3.9493,-3.9521,-3.9159,-3.9156,-3.9154,-3.9152,0,0,-3.8949,-3.899,-3.9021,-3.9047,-3.9087,-3.915,-3.9248,-3.9314,-3.9358,-3.9402,-3.9482,-3.9586,-3.9534,-3.9569,-3.9547,-3.9618,-3.9784,-3.9552,-3.9552,-3.9593,-3.9968,-4.0009,-4.0041,-3.9753,-3.9758,-3.9763,-3.9965,0,-3.9149,-3.9318,-3.9294,-3.9456,-3.9532,-3.947,-3.9555,-3.9588,-3.959,-3.9654,-3.9656,-3.973,-3.9656,-3.9677,-3.9745,-3.975,-3.9859,-3.9735,-3.9826,-3.983,-3.9816,-4.0076,-4.012,-4.0309,-3.999,-3.9995,-3.9998,0,-3.9406,-3.9458,-3.9628,-3.9656,-3.9687,-3.9763,-3.9822,-3.9884,-3.9921,-3.9917,-3.9958,-3.9923,-4.002,-3.9924,-4.0057,-3.9973,-4.001,-4.0018,-4.0024,-4.003,-3.9923,-4.0087,-4.0369,-4.0397,-4.0039,-4.0035,-4.0032,0,-3.9588,-3.9701,-3.9817,-3.9841,-3.9877,-3.9932,-3.995,-3.9981,-4.0022,-4.0074,-4.01,-4.0162,-4.0196,-4.0245,-4.0227,-4.016,-4.0364,-4.0267,-4.0362,-4.0363,-4.0406,-4.0404,-4.0696,-4.0434,-4.0433,-4.0433,-4.0432,0,-3.9813,-3.9919,-3.9899,-3.997,-4.0087,-4.0059,-4.0175,-4.0185,-4.0213,-4.0285,-4.0236,-4.0304,-4.0277,-4.0344,-4.0331,-4.0442,-4.0459,-4.0458,-4.0452,-4.0461,-4.0461,-4.0483,-4.0468,-4.044,-4.0439,-4.0437,-4.0436,0,-4.0035,-4.0026,-4.0148,-4.0172,-4.0181,-4.0265,-4.0286,-4.0352,-4.0351,-4.0442,-4.0462,-4.0459,-4.0535,-4.0523,-4.0607,-4.0598,-4.0737,-4.0717,-4.0724,-4.0719,-4.0814,-4.0805,-4.113,-4.117,-4.0883,-4.0886,-4.0889,0,-4.0178,-4.0258,-4.0291,-4.0335,-4.0357,-4.0429,-4.0471,-4.0447,-4.0492,-4.054,-4.0601,-4.0672,-4.0728,-4.0852,-4.0858,-4.0922,-4.0901,-4.1011,-4.0911,-4.0916,-4.0901,-4.0896,-4.0903,-4.103,-4.1033,-4.1036,-4.1038,0,-4.0433,-4.0425,-4.0487,-4.0549,-4.06,-4.0647,-4.0689,-4.0728,-4.0708,-4.0761,-4.0838,-4.0882,-4.0967,-4.1039,-4.1099,-4.1116,-4.1074,-4.107,-4.1095,-4.1104,-4.1104,-4.1103,-4.0776,-4.1062,-4.106,-4.1058,-4.1057,-4.1056,-4.0619,-4.0687,-4.072,-4.0791,-4.082,-4.0861,-4.0924,-4.093,-4.0994,-4.1062,-4.1044,-4.1131,-4.1166,-4.1242,-4.1266,-4.1333,-4.1293,-4.133,-4.1339,-4.1348,-4.1358,-4.1095,-4.1345,-4.1344,-4.1343,-4.1343,-4.1342,0,-4.087,-4.0888,-4.0954,-4.1014,-4.107,-4.1026,-4.107,-4.112,-4.1197,-4.1233,-4.1288,-4.1377,-4.1446,-4.1457,-4.1523,-4.1574,-4.1557,-4.1592,-4.1587,-4.1591,-4.1392,-4.1363,-4.1605,-4.1605,-4.1605,-4.1605,-4.1605,-4.1605,-4.1007,-4.1118,-4.1114,-4.124,-4.1257,-4.1342,-4.1371,-4.1408,-4.1436,-4.1537,-4.1594,-4.1601,-4.1627,-4.1694,-4.1755,-4.1757,-4.1782,-4.1825,-4.1819,-4.1632,-4.1606,-4.1581,-4.1553,-4.1831,-4.1832,-4.2013,-4.2014,-4.2016]},{"header":{"parameterUnit":"m.s-1","parameterCategory":1,"la1":30.2991,"la2":30.254,"lo1":-89.0895,"lo2":-89.0444,"dy":0.0017,"dx":0.0017,"nx":28,"ny":28,"refTime":"2025-08-08T03:00:00:Z","depth":0,"parameterNumber":3,"parameterNumberName":"V-component_of_WINDS"},"data":[0,0,0,0,0,0,0,0,0,0,0,0,0,0,0,0,0,0,0,0,0,0,0,0,0,0,0,0,0,0,0,0,0,0,0,0,0,0,0,0,0,0,0,0,0,0,0,0,0,0,0,0,0,0,0,0,0,0,-0.0492,-0.0492,0,-0.0502,-0.0502,-0.0503,-0.0541,-0.0542,-0.0542,-0.0543,-0.0553,-0.0553,-0.0552,0,0,0,0,0,0,0,0,0,0,0,0,0,-0.0505,-0.0504,-0.0492,-0.0492,-0.0492,-0.0502,-0.0502,-0.0503,-0.0541,-0.0542,-0.0543,-0.0544,-0.0554,-0.0553,-0.0552,0,0,0,0,0,0,0,0,0,0,0,0,0,-0.0505,-0.0504,-0.0492,-0.0513,-0.0514,-0.0502,-0.0502,-0.0503,-0.054,-0.0542,-0.0543,-0.0544,-0.0554,-0.0553,-0.0552,-0.0521,0,0,-0.055,-0.0549,0,0,0,0,0,0,0,0,-0.0505,-0.0505,-0.0509,-0.0511,-0.0513,-0.0522,-0.0511,-0.0509,-0.054,-0.053,-0.0543,-0.0545,-0.0542,-0.0542,-0.0541,-0.0521,-0.0522,-0.055,-0.0549,-0.0549,-0.0548,0,0,0,0,0,0,0,-0.0505,-0.0505,-0.0496,-0.0509,-0.0512,-0.0521,-0.0522,-0.051,-0.0529,-0.0531,-0.0534,-0.0535,-0.0543,-0.0542,-0.0541,-0.0522,-0.055,-0.0549,-0.0548,-0.0548,-0.0477,-0.0475,0,0,0,0,0,0,-0.0502,-0.0504,-0.0496,-0.0496,-0.0512,-0.052,-0.0521,-0.0518,-0.0529,-0.0532,-0.0534,-0.0537,-0.0542,-0.0542,-0.0542,-0.0506,-0.0549,-0.0548,-0.0547,-0.0478,-0.0476,-0.0475,0,0,0,0,0,0,-0.0502,-0.0501,-0.0495,-0.0501,-0.0501,-0.0518,-0.0513,-0.0517,-0.0516,-0.0531,-0.0534,-0.0529,-0.0543,-0.0543,-0.0526,-0.0507,-0.0548,-0.0547,-0.048,-0.0478,-0.0476,-0.0434,0,0,0,0,0,0,-0.0503,-0.0501,-0.049,-0.0501,-0.0501,-0.0479,-0.0512,-0.0516,-0.0514,-0.0518,-0.0527,-0.053,-0.0544,-0.0527,-0.0525,-0.0507,-0.0546,-0.0481,-0.0479,-0.0476,-0.0437,-0.0431,-0.0426,0,0,0,0,0,-0.0503,-0.0478,-0.0489,-0.0488,-0.0487,-0.0478,-0.0478,-0.0495,-0.0513,-0.0501,-0.0511,-0.053,-0.0509,-0.0525,-0.0523,-0.0504,-0.0483,-0.048,-0.0476,-0.044,-0.0432,-0.0426,0,0,0,0,0,0,-0.0464,-0.048,-0.0492,-0.047,-0.0472,-0.0485,-0.0471,-0.0487,-0.0484,-0.0488,-0.0509,-0.0511,-0.0491,-0.0496,-0.0513,-0.0474,-0.0499,-0.0495,-0.0472,-0.0465,-0.0459,-0.0459,-0.0546,0,0,0,0,0,-0.0453,-0.0445,-0.0459,-0.0437,-0.0438,-0.0454,-0.0451,-0.0464,-0.0467,-0.0469,-0.0477,-0.0479,-0.0473,-0.0469,-0.0465,-0.0438,-0.044,-0.0424,-0.0418,-0.0413,-0.041,-0.0396,-0.0389,-0.0464,-0.0464,-0.0465,0,0,-0.043,-0.0437,-0.0431,-0.043,-0.0433,-0.0424,-0.0455,-0.0444,-0.0437,-0.0467,-0.0451,-0.0457,-0.0461,-0.0439,-0.0429,-0.0442,-0.0389,-0.0409,-0.0405,-0.0405,-0.0392,-0.0385,-0.0378,-0.0462,-0.0463,-0.0463,0,0,-0.0384,-0.0388,-0.0371,-0.0374,-0.0379,-0.0389,-0.0385,-0.0394,-0.0399,-0.0384,-0.0406,-0.0398,-0.0387,-0.0389,-0.0389,-0.0342,-0.0359,-0.0339,-0.0309,-0.0295,-0.0289,-0.0284,-0.0267,-0.0261,-0.0336,-0.0336,-0.0336,0,-0.0355,-0.0342,-0.036,-0.0348,-0.0347,-0.0372,-0.0355,-0.0357,-0.036,-0.0358,-0.0372,-0.0359,-0.0364,-0.0342,-0.033,-0.0329,-0.0325,-0.0339,-0.0288,-0.0283,-0.0279,-0.0263,-0.0257,-0.0334,-0.0334,-0.0334,-0.0334,0,-0.0306,-0.0297,-0.0282,-0.0284,-0.0281,-0.0266,-0.0282,-0.0276,-0.0289,-0.0298,-0.0281,-0.0287,-0.0284,-0.028,-0.0292,-0.026,-0.0268,-0.0285,-0.031,-0.0269,-0.0255,-0.0249,-0.033,-0.0331,-0.0332,-0.0332,0,0,-0.0237,-0.0248,-0.0243,-0.0244,-0.025,-0.0244,-0.0229,-0.0226,-0.0221,-0.0222,-0.021,-0.02,-0.0216,-0.0215,-0.0228,-0.0215,-0.0177,-0.0234,-0.0234,-0.0224,-0.0142,-0.013,-0.0123,-0.0189,-0.0187,-0.0187,-0.0142,0,-0.0193,-0.017,-0.0186,-0.016,-0.0151,-0.0175,-0.0162,-0.0165,-0.0172,-0.0166,-0.0174,-0.0167,-0.0188,-0.0187,-0.0176,-0.0184,-0.0162,-0.0188,-0.0178,-0.0178,-0.0177,-0.0115,-0.0102,-0.006,-0.0136,-0.0135,-0.0135,0,-0.014,-0.0138,-0.0111,-0.0119,-0.0116,-0.0104,-0.0102,-0.0096,-0.0098,-0.0105,-0.0103,-0.0119,-0.0105,-0.0129,-0.011,-0.0128,-0.0125,-0.0128,-0.0127,-0.0127,-0.0154,-0.0114,-0.0047,-0.0041,-0.0126,-0.0127,-0.0127,0,-0.0093,-0.0083,-0.0066,-0.0066,-0.0074,-0.0065,-0.0068,-0.0073,-0.0069,-0.0067,-0.0066,-0.0062,-0.006,-0.0057,-0.007,-0.0087,-0.005,-0.0075,-0.0055,-0.0054,-0.0047,-0.0047,0.0022,-0.0043,-0.0043,-0.0043,-0.0043,0,-0.0043,-0.0025,-0.0045,-0.0034,-0.0015,-0.0033,-0.0013,-0.0019,-0.0022,-0.0013,-0.0033,-0.0023,-0.0042,-0.0034,-0.0045,-0.0028,-0.0027,-0.0031,-0.0034,-0.003,-0.0029,-0.0029,-0.0032,-0.0042,-0.0042,-0.0042,-0.0043,0,0.0012,0.0,0.0017,0.0009,0.0007,0.0021,0.0014,0.0023,0.0015,0.0027,0.0029,0.0016,0.0024,0.0011,0.0017,0.001,0.0034,0.0027,0.0035,0.0032,0.0054,0.0052,0.0125,0.0133,0.0064,0.0064,0.0065,0,0.0045,0.0057,0.005,0.0055,0.0053,0.0062,0.0065,0.0049,0.0053,0.0052,0.0061,0.0068,0.0072,0.0086,0.0077,0.0082,0.0074,0.0099,0.0074,0.0079,0.0074,0.0073,0.0074,0.0104,0.0105,0.0106,0.0106,0,0.0103,0.0097,0.0102,0.0106,0.011,0.0113,0.0113,0.0118,0.0102,0.0108,0.0116,0.0119,0.0126,0.0132,0.0135,0.0132,0.0117,0.0114,0.0119,0.0123,0.0128,0.0125,0.0048,0.0112,0.0112,0.0111,0.0111,0.0111,0.0147,0.0158,0.0154,0.0161,0.016,0.0162,0.017,0.0164,0.017,0.0174,0.0165,0.0175,0.0173,0.0175,0.0174,0.0182,0.0171,0.0178,0.018,0.0182,0.0185,0.0127,0.0183,0.0183,0.0183,0.0182,0.0182,0,0.0204,0.0201,0.0208,0.021,0.0215,0.0201,0.0201,0.0207,0.0216,0.0216,0.022,0.023,0.0236,0.0229,0.0234,0.0242,0.0235,0.0244,0.0242,0.0242,0.0195,0.019,0.0249,0.0249,0.0249,0.0249,0.0249,0.0249,0.0234,0.0251,0.0245,0.0261,0.0258,0.0268,0.027,0.0271,0.027,0.0282,0.0287,0.0282,0.0279,0.0284,0.029,0.0287,0.029,0.0301,0.0296,0.0252,0.0245,0.0239,0.0234,0.0302,0.0302,0.0343,0.0343,0.0343]}]]